Regional Weather Roundup
Issued by NWS Sterling, VA

Home | Current Version | Previous Version | Graphics & Text | Print | Product List | Glossary On
Versions: 1 2 3 4 5 6 7 8 9 10 11 12 13 14 15 16 17 18 19 20 21 22 23 24 25 26 27 28 29 30 31 32 33 34 35 36 37 38 39 40 41 42 43 44 45 46 47 48 49 50
000
ASUS41 KLWX 192110
RWRLWX

REGIONAL WEATHER ROUNDUP
NATIONAL WEATHER SERVICE BALTIMORE MD/WASHINGTON DC
500 PM EDT SUN OCT 19 2014

Note: "FAIR" indicates few or no clouds below 12,000 feet
with no significant weather and/or obstructions to visibility.
 TC=TEMPERATURE CELSIUS

 * =Non NWS site. Station does not report precipitation (e.g. rain,
    snow, etc.), thunder, or fog.

DCZ001-MDZ009-015-VAZ040>042-051-053>054-192200-
WASHINGTON METRO

CITY           SKY/WX    TMP DP  RH WIND       PRES   REMARKS
WASHINGTON NAT MOSUNNY   61  30  31 NW15G24   30.05S
DULLES         MOSUNNY   58  31  35 NW16G24   30.05S
ANDREWS AFB    SUNNY     58  31  35 W13G20    30.03S
FT BELVOIR     SUNNY     60  31  33 NW15      30.05S
QUANTICO       SUNNY     60  30  32 NW12G24   30.06S
COLLEGE PARK*  SUNNY     59  30  33 NW9       30.04S
LEESBURG*      SUNNY     59  36  41 NW13G20   30.06R
MANASSAS*      SUNNY     59  30  33 NW10      30.05S
GAITHERSBURG*  SUNNY     55  30  38 NW16G22   30.07S

$$

MDZ006>007-011-014-192200-
BALTIMORE METRO

CITY           SKY/WX    TMP DP  RH WIND       PRES   REMARKS
BWI AIRPORT    MOSUNNY   58  27  30 NW13      30.02S
MD SCIENCE CTR   N/A     57  24  28 MISG      30.03R
MARTIN STATE   SUNNY     57  34  41 NW10      30.03R
ANNAPOLIS      SUNNY     58  31  35 NW13G21   30.02S
FORT MEADE*    SUNNY     55  30  38 W12       30.06R

$$

MDZ012-015-019>023-192200-
MARYLAND EASTERN SHORE

CITY           SKY/WX    TMP DP  RH WIND       PRES   REMARKS
OCEAN CITY     SUNNY     56  32  40 NW16G22   30.00R
SALISBURY      SUNNY     59  31  34 NW13G22   30.01R
BAY BRIDGE AP*   N/A     57  30  35 NW12G20   30.03R
CAMBRIDGE*     SUNNY     59  32  36 NW9G17    30.02S
EASTON*        SUNNY     59  34  38 NW13G18   30.06R

$$

MDZ017>025-192200-
SOUTHERN MARYLAND

CITY           SKY/WX    TMP DP  RH WIND       PRES   REMARKS
PATUXENT RIVER MOSUNNY   59  30  33 NW15      30.03R
ST INIGOES     SUNNY     59  30  33 W9        30.04R
LEONARDTOWN*   SUNNY     57  30  35 W7        30.05R

$$

MDZ003>005-192200-
NORTH CENTRAL MARYLAND

CITY           SKY/WX    TMP DP  RH WIND       PRES   REMARKS
FREDERICK*     SUNNY     63  27  25 NW12      30.07S
HAGERSTOWN APT SUNNY     57  31  37 W17       30.04R
WESTMINSTER*   SUNNY     57  25  28 NW15      30.03R

$$

MDZ501>502-192200-
WESTERN MARYLAND

CITY           SKY/WX    TMP DP  RH WIND       PRES   REMARKS
OAKLAND*       SUNNY     45  23  42 W9        30.09S
CUMBERLAND*    SUNNY     57  30  35 W16G23    30.12S

$$

VAZ025>031-192200-
SHENANDOAH VALLEY

CITY           SKY/WX    TMP DP  RH WIND       PRES   REMARKS
WINCHESTER*    SUNNY     59  23  25 NW13      30.06S
FRONT ROYAL*   FAIR      59  32  36 NW6       30.05S
LURAY*         FAIR      61  32  33 NW6       30.06S
NEW MARKET*    FAIR      60  30  32 NW6       30.06S
STAUNTON*      SUNNY     61  25  25 N8        30.07F
WAYNESBORO*    FAIR      60  30  32 NW7       30.04F

$$

WVZ021-048>050-054>055-192200-
EASTERN WEST VIRGINIA PANHANDLE

CITY           SKY/WX    TMP DP  RH WIND       PRES   REMARKS
MARTINSBURG    SUNNY     57  29  34 NW16      30.06S
PETERSBURG*    SUNNY    N/A N/A N/A NW5       30.10S

$$

VAZ036>039-050-192200-
CENTRAL FOOTHILLS

CITY           SKY/WX    TMP DP  RH WIND       PRES   REMARKS
CHARLOTTESVILL SUNNY     62  29  28 N7        30.03F
CULPEPER*      SUNNY     63  28  27 NW3       30.06S
ORANGE*        SUNNY     61  30  31 W5        30.06S
GORDONSVILLE*  FAIR      62  31  31 CALM      30.04S
WARRENTON*     FAIR      62  39  42 NW9       30.05R

$$

VAZ055>057-192200-
NORTH AND CENTRAL PIEDMONT

CITY           SKY/WX    TMP DP  RH WIND       PRES   REMARKS
FREDERICKSBRG* SUNNY     63  31  31 NW9G16    30.04S
STAFFORD*      SUNNY     59  29  31 NW13      30.09S

$$

NCZ024-NYZ072-PAZ021-071-VAZ022-071-192200-
OTHER REGIONAL OBSERVATIONS

CITY           SKY/WX    TMP DP  RH WIND       PRES   REMARKS
NEW YORK CITY  SUNNY     51  24  34 NW12G22   29.98R
PHILADELPHIA   MOSUNNY   55  27  34 NW15G25   30.01R
PITTSBURGH     CLOUDY    53  32  44 NW10      30.10F
ROANOKE        MOSUNNY   61  32  33 NW13      30.08F
RICHMOND       MOSUNNY   64  27  24 NW9       30.05R
RALEIGH        MOSUNNY   65  39  38 VRB3      30.07F

$$

ANZ530>537-192200-
MARINE OBSERVATIONS

STATION/POSITION TIME  TEMP    WIND        PRES
                       AIR SEA DIR/SP/G
                 (UTC) (F)     (DEG/KT/KT) (MB)
THOMAS PT LIGHT  2100   57 64  300/ 12/ 13 1017.8R
BALT KEY BRIDGE  2100   57     290/ 19/ 22 1016.2S
COVE POINT       2100   57     340/ 20/ 23 1016.8R
LEWISETTA        2100   58 64  320/ 15/ 20 1017.0S
SOLOMONS ISLAND  2100      67                N/A
PINEY POINT      2100          340/ 19/ 23   N/A

$$




USA.gov is the U.S. government's official web portal to all federal, state and local government web resources and services.